When you browse on this site, cookies collect data to enhance your experience and personalize the content and advertising you see.
Visit our Privacy Policy to learn more. By continuing to use the site, you agree to this use of cookies and data.

Hourly Weather Sassandra

Today, 23 September, Wednesday

Time Temperature Precipitation Wind Pressure Humidity
00:00 +26°C° 0 mm 3 mps 758 mmHg 92%
01:00 +26°C° 0.2 mm 3 mps 758 mmHg 91%
02:00 +26°C° 0.2 mm 3 mps 758 mmHg 91%
03:00 +26°C° 0.2 mm 3 mps 757 mmHg 91%
04:00 +26°C° 1.9 mm 3 mps 758 mmHg 90%
05:00 +27°C° 1.9 mm 3 mps 758 mmHg 90%
06:00 +27°C° 0 mm 4 mps 759 mmHg 89%
07:00 +27°C° 3.6 mm 4 mps 759 mmHg 89%
08:00 +27°C° 3.6 mm 4 mps 759 mmHg 88%
09:00 +27°C° 3.6 mm 4 mps 760 mmHg 88%
10:00 +27°C° 4.2 mm 4 mps 759 mmHg 89%
11:00 +27°C° 4.2 mm 4 mps 759 mmHg 90%
12:00 +26°C° 4.2 mm 4 mps 758 mmHg 92%
13:00 +26°C° 6.2 mm 4 mps 758 mmHg 93%
14:00 +26°C° 6.2 mm 4 mps 758 mmHg 94%
15:00 +25°C° 6.2 mm 3 mps 757 mmHg 94%
16:00 +25°C° 1 mm 3 mps 758 mmHg 94%
17:00 +25°C° 1 mm 3 mps 758 mmHg 94%
18:00 +25°C° 1 mm 3 mps 758 mmHg 94%
19:00 +26°C° 0 mm 2 mps 759 mmHg 94%
20:00 +26°C° 0 mm 2 mps 759 mmHg 94%
21:00 +26°C° 0 mm 1 mps 760 mmHg 94%
22:00 +26°C° 0.1 mm 1 mps 760 mmHg 94%
23:00 +26°C° 0.1 mm 1 mps 759 mmHg 93%

Tomorrow, 24 September, Thursday

Time Temperature Precipitation Wind Pressure Humidity
00:00 +26°C° 0.1 mm 1 mps 759 mmHg 93%
01:00 +26°C° 0.1 mm 1 mps 759 mmHg 93%
02:00 +25°C° 0.1 mm 1 mps 758 mmHg 93%
03:00 +25°C° 0.1 mm 2 mps 758 mmHg 93%
04:00 +25°C° 0.2 mm 1 mps 759 mmHg 93%
05:00 +25°C° 0.2 mm 1 mps 759 mmHg 93%
06:00 +25°C° 0.2 mm 1 mps 759 mmHg 93%
07:00 +27°C° 0.1 mm 1 mps 760 mmHg 88%
08:00 +28°C° 0.1 mm 1 mps 760 mmHg 82%
09:00 +29°C° 0.1 mm 1 mps 760 mmHg 77%
10:00 +30°C° 0.3 mm 1 mps 759 mmHg 74%
11:00 +31°C° 0.3 mm 2 mps 759 mmHg 71%
12:00 +31°C° 0.3 mm 3 mps 758 mmHg 68%
13:00 +31°C° 0.7 mm 3 mps 758 mmHg 71%
14:00 +30°C° 0.7 mm 4 mps 757 mmHg 74%
15:00 +29°C° 0.7 mm 4 mps 757 mmHg 77%
16:00 +29°C° 0.1 mm 4 mps 757 mmHg 80%
17:00 +28°C° 0.1 mm 3 mps 757 mmHg 83%
18:00 +27°C° 0.1 mm 3 mps 758 mmHg 86%
19:00 +27°C° 0 mm 3 mps 758 mmHg 88%
20:00 +27°C° 0 mm 2 mps 759 mmHg 89%
21:00 +27°C° 0 mm 2 mps 759 mmHg 90%
22:00 +26°C° 0 mm 2 mps 759 mmHg 91%
23:00 +26°C° 0 mm 2 mps 759 mmHg 91%

Day after tomorrow, 25 September, Friday

Time Temperature Precipitation Wind Pressure Humidity
00:00 +26°C° 0 mm 1 mps 759 mmHg 92%
01:00 +26°C° 0 mm 2 mps 758 mmHg 91%
02:00 +26°C° 0 mm 2 mps 758 mmHg 91%
03:00 +26°C° 0 mm 2 mps 758 mmHg 90%
04:00 +26°C° 0 mm 2 mps 758 mmHg 90%
05:00 +26°C° 0 mm 2 mps 759 mmHg 90%
06:00 +26°C° 0 mm 2 mps 759 mmHg 90%
07:00 +27°C° 0 mm 2 mps 759 mmHg 86%
08:00 +28°C° 0 mm 2 mps 760 mmHg 82%
09:00 +29°C° 0 mm 2 mps 760 mmHg 79%
10:00 +29°C° 0.5 mm 3 mps 759 mmHg 77%
11:00 +30°C° 0.5 mm 4 mps 759 mmHg 75%
12:00 +30°C° 0.5 mm 4 mps 758 mmHg 73%
13:00 +30°C° 1.1 mm 4 mps 758 mmHg 75%
14:00 +29°C° 1.1 mm 4 mps 757 mmHg 77%
15:00 +29°C° 1.1 mm 5 mps 756 mmHg 79%
16:00 +28°C° 0.7 mm 4 mps 757 mmHg 82%
17:00 +28°C° 0.7 mm 4 mps 757 mmHg 85%
18:00 +27°C° 0.7 mm 3 mps 758 mmHg 88%
19:00 +27°C° 1.1 mm 3 mps 758 mmHg 89%
20:00 +27°C° 1.1 mm 3 mps 758 mmHg 89%
21:00 +27°C° 1.1 mm 2 mps 759 mmHg 90%
22:00 +27°C° 0.1 mm 3 mps 758 mmHg 90%
23:00 +27°C° 0.1 mm 3 mps 758 mmHg 90%

26 September, Saturday

Time Temperature Precipitation Wind Pressure Humidity
00:00 +27°C° 0.1 mm 3 mps 758 mmHg 90%
01:00 +26°C° 0.4 mm 3 mps 758 mmHg 90%
02:00 +26°C° 0.4 mm 3 mps 757 mmHg 91%
03:00 +26°C° 0.4 mm 3 mps 757 mmHg 91%
04:00 +26°C° 0.7 mm 3 mps 757 mmHg 91%
05:00 +26°C° 0.7 mm 3 mps 757 mmHg 90%
06:00 +26°C° 0.7 mm 3 mps 758 mmHg 90%
07:00 +26°C° 2.4 mm 3 mps 758 mmHg 90%
08:00 +26°C° 2.4 mm 3 mps 758 mmHg 90%
09:00 +26°C° 2.4 mm 3 mps 759 mmHg 89%
10:00 +26°C° 2.7 mm 4 mps 758 mmHg 89%
11:00 +27°C° 2.7 mm 4 mps 758 mmHg 89%
12:00 +27°C° 2.7 mm 4 mps 757 mmHg 89%
13:00 +26°C° 1.9 mm 4 mps 757 mmHg 90%
14:00 +26°C° 1.9 mm 4 mps 756 mmHg 92%
15:00 +26°C° 1.9 mm 4 mps 756 mmHg 93%
16:00 +25°C° 2.3 mm 4 mps 756 mmHg 93%
17:00 +25°C° 2.3 mm 3 mps 757 mmHg 94%
18:00 +25°C° 2.3 mm 3 mps 757 mmHg 95%
19:00 +25°C° 0.5 mm 3 mps 757 mmHg 95%
20:00 +25°C° 0.5 mm 3 mps 758 mmHg 94%
21:00 +25°C° 0.5 mm 3 mps 758 mmHg 94%
22:00 +25°C° 0.6 mm 2 mps 758 mmHg 94%
23:00 +25°C° 0.6 mm 2 mps 758 mmHg 94%

27 September, Sunday

Time Temperature Precipitation Wind Pressure Humidity
00:00 +25°C° 0.6 mm 2 mps 757 mmHg 93%
01:00 +25°C° 1.6 mm 2 mps 757 mmHg 93%
02:00 +25°C° 1.7 mm 3 mps 757 mmHg 92%
03:00 +25°C° 1.7 mm 3 mps 756 mmHg 92%
04:00 +25°C° 2.2 mm 3 mps 757 mmHg 91%
05:00 +26°C° 2.2 mm 3 mps 757 mmHg 90%
06:00 +26°C° 2.2 mm 4 mps 757 mmHg 90%
07:00 +26°C° 2.5 mm 4 mps 758 mmHg 90%
08:00 +26°C° 2.5 mm 4 mps 758 mmHg 89%
09:00 +26°C° 2.5 mm 4 mps 758 mmHg 89%
10:00 +27°C° 1.8 mm 4 mps 758 mmHg 88%
11:00 +27°C° 1.8 mm 4 mps 757 mmHg 86%
12:00 +27°C° 1.8 mm 5 mps 757 mmHg 85%
13:00 +27°C° 1.3 mm 4 mps 757 mmHg 86%
14:00 +27°C° 1.3 mm 4 mps 756 mmHg 87%
15:00 +27°C° 1.3 mm 4 mps 756 mmHg 87%
16:00 +26°C° 0.9 mm 4 mps 756 mmHg 89%
17:00 +26°C° 0.9 mm 3 mps 757 mmHg 90%
18:00 +26°C° 0.9 mm 3 mps 757 mmHg 91%
19:00 +26°C° 0.2 mm 3 mps 757 mmHg 92%
20:00 +26°C° 0.2 mm 3 mps 758 mmHg 92%
21:00 +26°C° 0.2 mm 2 mps 758 mmHg 92%
22:00 +26°C° 0 mm 2 mps 758 mmHg 92%
23:00 +25°C° 0 mm 2 mps 758 mmHg 92%

28 September, Monday

Time Temperature Precipitation Wind Pressure Humidity
00:00 +25°C° 0 mm 2 mps 757 mmHg 92%
01:00 +25°C° 0.2 mm 2 mps 757 mmHg 91%
02:00 +26°C° 0.2 mm 2 mps 757 mmHg 91%
03:00 +26°C° 0.2 mm 2 mps 757 mmHg 90%
04:00 +26°C° 0.2 mm 2 mps 757 mmHg 90%
05:00 +26°C° 0.2 mm 2 mps 757 mmHg 90%
06:00 +26°C° 0.2 mm 2 mps 757 mmHg 90%
07:00 +27°C° 0.5 mm 2 mps 758 mmHg 85%
08:00 +28°C° 0.5 mm 2 mps 758 mmHg 79%
09:00 +29°C° 0.5 mm 3 mps 758 mmHg 74%
10:00 +30°C° 1.1 mm 3 mps 758 mmHg 74%
11:00 +30°C° 1.1 mm 3 mps 757 mmHg 74%
12:00 +30°C° 1.1 mm 4 mps 757 mmHg 75%
13:00 +30°C° 1 mm 4 mps 756 mmHg 76%
14:00 +29°C° 1 mm 4 mps 756 mmHg 77%
15:00 +29°C° 1 mm 5 mps 755 mmHg 78%
16:00 +28°C° 0.2 mm 4 mps 755 mmHg 81%
17:00 +27°C° 0.2 mm 4 mps 756 mmHg 84%
18:00 +27°C° 0.2 mm 3 mps 756 mmHg 87%
19:00 +27°C° 0.1 mm 3 mps 757 mmHg 88%
20:00 +26°C° 0.1 mm 3 mps 757 mmHg 89%
21:00 +26°C° 0.1 mm 3 mps 758 mmHg 89%
22:00 +26°C° 0 mm 3 mps 758 mmHg 90%
23:00 +26°C° 0 mm 3 mps 757 mmHg 90%
Show more